Location: Praha
(50.0830°N, 14.4670°E)
Time: 16:21:42
(UTC+02:00)

ISS - Pass Details

Date: 02 October 2019
Orbit: 411 x 421 km, 51.6° (Epoch: 18 October)

Event Time Altitude Azimuth Distance (km) Brightness Sun altitude
Rises 19:43:52 0° 283° (WNW) 2,347 2.2 -11.2°
Reaches altitude 10° 19:45:57 10° 285° (WNW) 1,483 0.6 -11.5°
Maximum altitude 19:49:17 78° 12° (NNE) 425 -3.8 -12.1°
Enters shadow 19:51:17 22° 97° (E) 955 -2.6 -12.4°
